Location: Trebic
(49.2170°N, 15.8830°E)
Time: 00:32:59
(UTC+02:00)

Transit 2A Rocket - Pass Details

Date: 25 July 2019
Orbit: 591 x 913 km, 66.7° (Epoch: 25 August)

Event Time Altitude Azimuth Distance (km) Brightness Sun altitude
Rises 02:48:00 0° 195° (SSW) 3,515 - -17.2°
Reaches altitude 10° 02:50:38 10° 190° (S) 2,558 - -17.0°
Exits shadow 02:52:56 23° 181° (S) 1,775 6.4 -16.8°
Maximum altitude 02:56:20 49° 118° (ESE) 1,101 5.8 -16.6°
Drops below altitude 10° 03:01:43 10° 45° (NE) 2,415 8.8 -16.2°
Sets 03:04:08 0° 40° (NE) 3,302 10.0 -16.0°
